Split Airport, Croatia

1:43 AM CEST on September 26, 2016 (GMT +0200)
Kastela

Weather History for LDSP - February, 2013

Change the Weather History Date:

Sunday, February 3, 2013

  Actual Average Record
Temperature  
Mean Temperature 45 °F -  
Max Temperature 49 °F - - ()
Min Temperature 41 °F - - ()
Degree Days  
Heating Degree Days 20    
Moisture  
Dew Point 34 °F    
Average Humidity 60    
Maximum Humidity 88    
Minimum Humidity 29    
Precipitation  
Precipitation 0.00 in - - ()
Sea Level Pressure  
Sea Level Pressure 29.63 in    
Wind  
Wind Speed 11 mph ()    
Max Wind Speed 24 mph    
Max Gust Speed 36 mph    
Visibility 7.2 miles    
Events Rain    
T = Trace of Precipitation, MM = Missing Value Source: Averaged Metar Reports

Daily Weather History Graph

Daily Weather History Graph

Search for Another Location

Airport or City:

Trip Planner

Search our weather history database for the weather conditions in past years. The results will help you decide how hot, cold, wet, or windy it might be!

Date:

Astronomy

Feb. 03, 2013 Rise Set
Actual Time 7:08 AM CET 5:08 PM CET
Civil Twilight 6:38 AM CET 5:39 PM CET
Nautical Twilight 6:04 AM CET 6:13 PM CET
Astronomical Twilight 5:30 AM CET 6:46 PM CET
Moon 12:16 AM CET (2/3) 10:33 AM CET (2/3)
Length of Visible Light 11h 00m
Length of Day
10h 00m
Waning Gibbous, 51% of the Moon is Illuminated
Feb 3
Waning Gibbous
Feb 3
Last Quarter
Feb 10
New
Feb 17
First Quarter
Feb 25
Full

Hourly Weather History & Observations

Time (CET) Temp. Windchill Dew Point Humidity Pressure Visibility Wind Dir Wind Speed Gust Speed Precip Events Conditions
12:00 AM 53.6 °F - 50.0 °F 88% 29.27 in 6.2 mi South 13.8 mph - N/A Rain Rain
12:30 AM 55.4 °F - 51.8 °F 88% 29.27 in 6.2 mi South 8.1 mph - N/A   Mostly Cloudy
1:00 AM 56 °F - 51 °F 80% 29.27 in 7 mi SE 8.9 mph - - Rain Light Rain
1:00 AM 55.4 °F - 51.8 °F 88% 29.27 in 6.2 mi SE 9.2 mph - N/A Rain Light Rain
1:30 AM 55.4 °F - 51.8 °F 88% 29.27 in 6.2 mi SE 9.2 mph - N/A   Mostly Cloudy
2:00 AM 55.4 °F - 51.8 °F 88% 29.27 in 6.2 mi East 8.1 mph - N/A   Mostly Cloudy
2:30 AM 57.2 °F - 51.8 °F 82% 29.27 in 6.2 mi SE 8.1 mph - N/A   Mostly Cloudy
3:00 AM 55.4 °F - 48.2 °F 77% 29.30 in 6.2 mi South 13.8 mph - N/A   Mostly Cloudy
3:30 AM 55.4 °F - 48.2 °F 77% 29.27 in 6.2 mi SE 12.7 mph - N/A   Mostly Cloudy
4:00 AM 54 °F - 49 °F 76% 29.34 in 7 mi SSW 8.9 mph - - Rain Light Rain
4:00 AM 53.6 °F - 48.2 °F 82% 29.33 in 6.2 mi SSW 8.1 mph - N/A Rain Light Rain
4:30 AM 53.6 °F - 46.4 °F 77% 29.39 in 6.2 mi SW 10.4 mph - N/A   Mostly Cloudy
5:00 AM 51.8 °F - 44.6 °F 76% 29.42 in 6.2 mi SW 4.6 mph - N/A   Scattered Clouds
5:30 AM 51.8 °F - 44.6 °F 76% 29.42 in 6.2 mi East 4.6 mph - N/A   Scattered Clouds
6:00 AM 48.2 °F - 41.0 °F 76% 29.44 in 6.2 mi NE 6.9 mph - N/A   Mostly Cloudy
6:30 AM 48.2 °F - 39.2 °F 71% 29.47 in 6.2 mi Variable 3.5 mph - N/A   Mostly Cloudy
7:00 AM 49 °F - 41 °F 67% 29.50 in 9 mi East 11.2 mph - -   Mostly Cloudy
7:00 AM 48.2 °F - 41.0 °F 76% 29.47 in 6.2 mi East 10.4 mph - N/A   Mostly Cloudy
7:30 AM 50.0 °F - 41.0 °F 71% 29.50 in 6.2 mi East 10.4 mph - N/A   Mostly Cloudy
8:00 AM 48.2 °F - 39.2 °F 71% 29.53 in 6.2 mi ENE 6.9 mph - N/A   Mostly Cloudy
8:30 AM 46.4 °F 42.9 °F 39.2 °F 76% 29.56 in 6.2 mi ENE 6.9 mph - N/A   Mostly Cloudy
9:00 AM 46.4 °F 41.9 °F 37.4 °F 71% 29.59 in 6.2 mi ENE 9.2 mph - N/A   Mostly Cloudy
9:30 AM 46.4 °F 41.5 °F 37.4 °F 71% 29.59 in 6.2 mi NE 10.4 mph - N/A   Mostly Cloudy
10:00 AM 48 °F - 38 °F 58% 29.63 in 19 mi NE 13.4 mph - -   Partly Cloudy
10:00 AM 48.2 °F - 37.4 °F 66% 29.62 in 6.2 mi NE 13.8 mph - N/A   Scattered Clouds
10:30 AM 48.2 °F - 35.6 °F 62% 29.65 in 6.2 mi NE 15.0 mph 26.5 mph N/A   Mostly Cloudy
11:00 AM 48.2 °F - 33.8 °F 58% 29.65 in 6.2 mi ENE 13.8 mph - N/A   Mostly Cloudy
11:30 AM 48.2 °F - 32.0 °F 54% 29.68 in 6.2 mi ENE 15.0 mph 26.5 mph N/A   Mostly Cloudy
12:00 PM 48.2 °F - 32.0 °F 54% 29.68 in 6.2 mi NE 15.0 mph - N/A   Mostly Cloudy
12:30 PM 48.2 °F - 30.2 °F 50% 29.68 in 6.2 mi NE 17.3 mph - N/A   Mostly Cloudy
1:00 PM 48 °F - 29 °F 34% 29.70 in 19 mi NE 15.7 mph - -   Mostly Cloudy
1:00 PM 48.2 °F - 28.4 °F 46% 29.68 in 6.2 mi NE 15.0 mph - N/A   Mostly Cloudy
1:30 PM 48.2 °F - 28.4 °F 46% 29.71 in 6.2 mi ENE 13.8 mph - N/A   Mostly Cloudy
2:00 PM 46.4 °F 40.7 °F 26.6 °F 46% 29.71 in 6.2 mi NE 12.7 mph - N/A   Mostly Cloudy
2:30 PM 46.4 °F 39.5 °F 24.8 °F 43% 29.74 in 6.2 mi NNE 17.3 mph - N/A   Mostly Cloudy
3:00 PM 44.6 °F 36.9 °F 24.8 °F 46% 29.77 in 6.2 mi NNE 18.4 mph - N/A   Scattered Clouds
3:30 PM 44.6 °F 36.1 °F 24.8 °F 46% 29.77 in 6.2 mi NNE 21.9 mph - N/A   Scattered Clouds
4:00 PM 44 °F - 24 °F 32% 29.80 in 19 mi NNE 15.7 mph - -   Mostly Cloudy
4:00 PM 44.6 °F 37.4 °F 24.8 °F 46% 29.80 in 6.2 mi NNE 16.1 mph - N/A   Mostly Cloudy
4:30 PM 42.8 °F 36.2 °F 26.6 °F 53% 29.80 in 6.2 mi NNE 12.7 mph - N/A   Scattered Clouds
5:00 PM 42.8 °F 34.5 °F 26.6 °F 53% 29.83 in 6.2 mi NNE 18.4 mph - N/A   Scattered Clouds
5:30 PM 42.8 °F 34.5 °F 24.8 °F 49% 29.83 in 6.2 mi NNE 18.4 mph - N/A   Mostly Cloudy
6:00 PM 41.0 °F 34.3 °F 26.6 °F 57% 29.86 in 6.2 mi ENE 11.5 mph - N/A   Scattered Clouds
6:30 PM 41.0 °F 31.9 °F 24.8 °F 53% 29.89 in 6.2 mi NE 19.6 mph - N/A   Mostly Cloudy
7:00 PM 42 °F - 23 °F 34% 29.90 in 12 mi NE 22.4 mph - -   Partly Cloudy
7:00 PM 42.8 °F 33.5 °F 23.0 °F 46% 29.89 in 6.2 mi NE 23.0 mph - N/A   Scattered Clouds
7:30 PM 42.8 °F 34.0 °F 23.0 °F 46% 29.89 in 6.2 mi NE 20.7 mph - N/A   Scattered Clouds
8:00 PM 42.8 °F 34.3 °F 23.0 °F 46% 29.89 in 6.2 mi NE 19.6 mph 31.1 mph N/A   Scattered Clouds
8:30 PM 42.8 °F 34.3 °F 21.2 °F 42% 29.92 in 6.2 mi NNE 19.6 mph - N/A   Scattered Clouds
9:00 PM 42.8 °F 34.3 °F 21.2 °F 42% 29.92 in 6.2 mi NE 19.6 mph - N/A   Scattered Clouds
9:30 PM 42.8 °F 34.0 °F 21.2 °F 42% 29.92 in 6.2 mi NE 20.7 mph - N/A   Scattered Clouds
10:00 PM 43 °F - 21 °F 29% 29.95 in 12 mi NNE 20.1 mph - -   Mostly Cloudy
10:00 PM 42.8 °F 34.3 °F 21.2 °F 42% 29.92 in - NNE 19.6 mph 32.2 mph N/A   Clear
10:30 PM 42.8 °F 33.3 °F 21.2 °F 42% 29.92 in - NNE 24.2 mph 35.7 mph N/A   Clear
11:00 PM 41.0 °F 32.2 °F 23.0 °F 49% 29.95 in - NNE 18.4 mph - N/A   Clear
11:30 PM 41.0 °F 32.2 °F 23.0 °F 49% 29.95 in - NNE 18.4 mph - N/A   Clear